Weather History for Glendale Luke AFB, AZ

Change the Weather History Date:

Friday, March 1, 2013

  Actual Average Record
Temperature  
Mean Temperature 58 °F -  
Max Temperature 77 °F 75 °F 93 °F (1921)
Min Temperature 40 °F 45 °F 28 °F (1922)
Degree Days  
Heating Degree Days 6    
Growing Degree Days 8 (Base 50)    
Moisture  
Dew Point 24 °F    
Average Humidity 29    
Maximum Humidity 51    
Minimum Humidity 12    
Precipitation  
Precipitation 0.00 in - - ()
Sea Level Pressure  
Sea Level Pressure 30.25 in    
Wind  
Wind Speed 4 mph (West)    
Max Wind Speed 8 mph    
Max Gust Speed -    
Visibility 10 miles    
Events      
Averages and records for this station are not official NWS values.
T = Trace of Precipitation, MM = Missing Value Source: NWS Daily Summary

Daily Weather History Graph

Daily Weather History Graph

Search for Another Location

Airport:

Trip Planner

Search our weather history database for the weather conditions in past years. The results will help you decide how hot, cold, wet, or windy it might be!

Date:

Astronomy

Mar. 01, 2013 Rise Set
Actual Time 6:57 AM MST 6:26 PM MST
Civil Twilight 6:32 AM MST 6:51 PM MST
Nautical Twilight 6:03 AM MST 7:20 PM MST
Astronomical Twilight 5:34 AM MST 7:49 PM MST
Moon 10:47 PM MST (3/1) 9:01 AM MST (3/1)
Length of Visible Light 12h 18m
Length of Day
11h 29m
Waning Gibbous, 83% of the Moon is Illuminated
Mar 1
Waning Gibbous
Mar 4
Last Quarter
Mar 11
New
Mar 19
First Quarter
Mar 27
Full

Hourly Weather History & Observations

Time (MST) Temp. Windchill Dew Point Humidity Pressure Visibility Wind Dir Wind Speed Gust Speed Precip Events Conditions
12:58 AM 49.3 °F - 22.3 °F 35% 30.30 in 10.0 mi North 8.1 mph - N/A   Clear
1:58 AM 48.2 °F - 22.3 °F 36% 30.30 in 10.0 mi West 1.2 mph - N/A   Clear
2:58 AM 45.9 °F - 21.4 °F 38% 30.28 in 10.0 mi Calm Calm - N/A   Clear
3:58 AM 43.9 °F 40.5 °F 24.6 °F 47% 30.27 in 10.0 mi NNW 5.8 mph - N/A   Clear
4:58 AM 43.2 °F 39.7 °F 24.3 °F 47% 30.29 in 10.0 mi West 5.8 mph - N/A   Clear
5:58 AM 40.8 °F 35.6 °F 23.4 °F 50% 30.29 in 10.0 mi NNW 8.1 mph - N/A   Clear
6:58 AM 43.3 °F 41.7 °F 20.5 °F 40% 30.30 in 10.0 mi NE 3.5 mph - N/A   Clear
7:58 AM 47.1 °F - 20.3 °F 35% 30.33 in 10.0 mi ENE 2.3 mph - N/A   Clear
8:58 AM 53.8 °F - 21.0 °F 28% 30.34 in 10.0 mi West 2.3 mph - N/A   Clear
9:58 AM 59.0 °F - 22.8 °F 25% 30.34 in 10.0 mi SSW 4.6 mph - N/A   Clear
10:58 AM 64.4 °F - 17.8 °F 17% 30.33 in 10.0 mi Variable 4.6 mph - N/A   Clear
11:58 AM 68.0 °F - 17.8 °F 15% 30.31 in 10.0 mi SSE 4.6 mph - N/A   Clear
12:58 PM 71.8 °F - 18.0 °F 13% 30.26 in 10.0 mi SW 1.2 mph - N/A   Clear
1:58 PM 73.9 °F - 20.5 °F 13% 30.22 in 10.0 mi Variable 3.5 mph - N/A   Clear
2:58 PM 75.4 °F - 19.9 °F 12% 30.20 in 10.0 mi West 3.5 mph - N/A   Clear
3:58 PM 77.0 °F - 23.0 °F 13% 30.18 in 10.0 mi SW 2.3 mph - N/A   Clear
4:58 PM 77.4 °F - 24.8 °F 14% 30.17 in 10.0 mi WSW 3.5 mph - N/A   Clear
5:58 PM 75.9 °F - 25.5 °F 15% 30.16 in 10.0 mi SSW 8.1 mph - N/A   Clear
6:58 PM 71.6 °F - 26.4 °F 19% 30.17 in 10.0 mi South 4.6 mph - N/A   Clear
7:58 PM 67.3 °F - 26.8 °F 22% 30.18 in 10.0 mi SSW 3.5 mph - N/A   Clear
8:58 PM 62.1 °F - 32.2 °F 33% 30.19 in 10.0 mi Calm Calm - N/A   Clear
9:58 PM 61.3 °F - 29.8 °F 30% 30.20 in 10.0 mi ENE 5.8 mph - N/A   Clear
10:58 PM 55.8 °F - 33.6 °F 43% 30.21 in 10.0 mi Variable 2.3 mph - N/A   Clear
11:58 PM 52.5 °F - 34.7 °F 51% 30.21 in 10.0 mi NW 5.8 mph - N/A   Clear